Simultaneous Nadir Overpasses (SNOs) Predictions

Prediction of SNOs between NOAA-19 and TERRA Satellite Orbit:

Table of predicted SNOs for the next 14.0 days since TLE Epoch: 4/8/2023
Index Date (NOAA-19) Time (NOAA-19) Lat,Lon (NOAA-19) SZA (NOAA-19 ) Date (TERRA) Time (TERRA) Lat,Lon (TERRA) SZA (TERRA ) Distance(km) Time Diff (sec)
1 04/09/2023 05:13:23 80.93, 136.16 75.01 04/09/2023 05:14:07 80.93, 135.99 75.00 3.08 44
2 04/09/2023 06:04:23 -80.93, -56.28 104.98 04/09/2023 06:03:30 -80.92, -56.42 105.03 2.88 53
3 04/11/2023 09:04:01 -80.93,-101.67 105.80 04/11/2023 09:04:37 -80.93,-101.60 105.78 1.13 36
4 04/11/2023 09:54:58 80.93, 65.90 74.22 04/11/2023 09:53:59 80.93, 66.05 74.21 2.74 59
5 04/13/2023 12:54:35 80.93, 20.60 73.42 04/13/2023 12:55:06 80.93, 20.73 73.45 2.30 31
6 04/13/2023 13:45:36 -80.93,-171.78 106.56 04/13/2023 13:44:29 -80.92,-171.69 106.58 1.76 67
7 04/15/2023 16:45:13 -80.93, 143.07 107.33 04/15/2023 16:45:35 -80.94, 143.18 107.31 2.18 22
8 04/15/2023 17:36:08 80.93, -49.03 72.72 04/15/2023 17:34:57 80.94, -49.16 72.69 2.24 71
9 04/17/2023 20:35:45 80.93, -94.45 71.94 04/17/2023 20:36:03 80.94, -94.43 71.95 1.19 18
10 04/20/2023 00:26:24 -80.93, 27.90 108.80 04/20/2023 00:26:32 -80.92, 27.72 108.82 3.21 8



Historial Predications of SNOs between NOAA-19 and TERRA
